SCP
-0 -0 -0 -0 0 0 0 0 0 0 0 0 0 0 0 -0 -0 0 0 0 0 0 0 0 0 0 0 0 0 0 0 0 0 0 0 0 0 0 0 0 0 0 0 0
0 0 0 0 0 -0 0 0 0 0 0 0 0 0 0 0 0 0 0 0 0 0 0 0 0 0 0 0 0 0 0 0 0 0 0 0 0 0 0 0 0 0 0 0
0 0 0 -0 0 0 0 0 0 0 0 0 0 0 0 0 0 0 0 0 0 0 0 0 0 0 0 0 0 0 0 0 0 0 0 0 0 0 0 0 0 0 0 0
0 0 0 0 0 0 0 -0 0 -0 -0 0 0 0 0 -0 0 0 0 0 0 0 0 0 0 0 0 0 0 0 0 0 0 0 0 0 0 0 0 0 0 0 0 0
0 0 0 0 0 0 0 -0 0 0 0 0 0 0 -0 -0 0 0 0 0 0 0 0 0 0 0 0 0 0 0 0 0 0 0 0 0 0 0 0 0 0 0 0 0
-0 -0 0 0 -0 0 -0 0 0 0 0 -0 0 0 0 0 -0 0 0 0 0 0 0 0 0 0 0 0 0 0 0 0 0 0 0 0 0 0 0 0 0 0 0 0
-0 -0 0 0 -0 0 0 0 -0 -0 -0 0 0 0 0 0 0 0 0 0 0 0 0 0 0 0 0 0 0 0 0 0 0 0 0 0 0 0 0 0 0 0 0 0
-0 -0 0 -0 -0 0 0 0 0 0 0 0 0 0 -0 -0 0 0 0 0 0 0 0 0 0 0 0 0 0 0 0 0 0 0 0 0 0 0 0 0 0 0 0 0
0 0 0 0 0 0 0 0 0 0 0 0 -0 -0 -0 0 -0 0 0 0 0 0 0 0 0 0 0 0 0 0 0 0 0 0 0 0 0 0 0 0 0 0 0 0
0 0 0 0 0 0 0 0 0 0 0 0 0 0 -0 0 0 -0 0 0 0 0 0 0 0 0 0 0 0 0 0 0 0 0 0 0 0 0 0 0 0 0 0 0
0 0 0 0 0 0 0 0 0 -0 -0 -0 -0 -0 0 0 0 0 0 0 0 0 0 0 0 0 0 0 0 0 0 0 0 0 0 0 0 0 0 0 0 0 0 0
0 0 0 0 0 0 0 0 0 0 0 -0 0 0 -0 0 -0 0 0 -0 0 -0 -0 0 0 0 0 0 0 0 -0 0 0 0 0 0 0 0 0 0 0 0 0 0
0 -0 0 0 0 0 0 0 0 0 0 -0 -0 -0 -0 0 0 -0 0 0 -0 0 0 0 -0 -0 -0 -0 -0 -0 0 0 0 0 0 0 0 0 0 0 0 0 0 0
0 0 0 0 0 0 0 0 0 -0 -0 0 0 -0 0 0 0 0 0 0 0 0 0 -0 -0 -0 -0 -0 -0 0 0 0 0 0 0 0 0 0 0 0 0 0 0 0
0 0 0 0 0 -0 -0 0 0 -0 -0 -0 -0 -0 -0 -0 -0 -0 0 -0 0 0 0 0 0 0 -0 -0 -0 0 0 0 0 0 0 0 0 0 0 0 0 0 0 0
0 0 0 0 0 0 0 -0 -0 -0 -0 -0 -0 -0 -0 0 0 0 0 0 0 0 0 0 0 0 0 0 -0 0 0 0 0 0 0 0 0 0 0 0 0 0 0 0
0 0 0 0 0 0 0 0 0 -0 -0 -0 -0 -0 -0 0 0 -0 -0 -0 -0 -0 -0 0 -0 0 0 0 0 0 0 0 0 0 0 0 0 0 0 0 0 0 0 0
0 0 0 0 0 0 0 0 0 -0 -0 -0 -0 -0 -0 -0 -0 -0 -0 -0 -0 -0 0 0 0 0 0 0 0 0 0 0 0 0 0 0 0 0 0 0 0 0 0 0
0 0 0 0 0 0 0 0 0 0 -0 -0 -0 -0 -0 -0 -0 0 0 -0 0 -0 -0 0 0 0 0 0 0 0 0 0 0 0 0 0 0 0 0 0 0 0 0 0
0 0 0 0 0 0 0 0 0 0 0 -0 -0 -0 -0 -0 -0 -0 -0 -0 -0 0 0 0 0 0 0 0 0 0 0 0 0 0 0 0 0 0 0 0 0 0 0 0
0 0 0 0 0 0 0 0 0 0 0 -0 -0 -0 -0 -0 -0 -0 -0 -0 0 0 0 0 0 0 0 0 0 0 0 0 0 0 0 0 0 0 0 -0 -0 -0 0 0
0 0 0 0 0 0 0 0 0 0 0 0 0 -0 -0 -0 -0 0 0 0 0 0 0 0 0 0 0 0 0 0 0 0 0 0 0 0 0 0 -0 -0 -0 -0 0 0
0 0 0 0 0 0 0 0 0 0 0 0 0 0 -0 0 0 0 0 0 0 0 0 0 0 0 0 0 0 0 0 0 0 0 0 0 0 0 -0 -0 -0 -0 0 0
-0 -0 0 0 0 0 0 0 0 0 0 0 0 0 0 0 0 0 0 0 0 0 0 0 0 0 0 0 0 0 0 0 0 0 0 0 0 0 -0 -0 -0 -0 0 0
0 0 0 0 0 0 0 0 0 0 0 0 0 0 0 0 0 0 0 0 0 0 0 0 0 0 0 0 0 0 0 0 0 0 0 0 0 -0 -0 -0 -0 -0 0 -0
0 0 0 0 0 0 0 0 0 0 0 0 0 0 0 0 0 0 0 0 0 0 0 0 0 0 0 0 0 0 0 0 0 0 0 0 0 -0 -0 -0 -0 0 0 0
0 0 0 0 0 0 0 0 0 0 0 0 0 0 0 0 0 0 0 0 0 0 0 0 0 0 0 0 0 0 0 0 0 0 0 0 0 -0 -0 -0 0 0 0 0
Wind_Speed_500mb
25 32 26 31 37 37 37 33 34 56 57 52 53 54 70 71 64 56 52 41 44 40 48 56 50 55 57 61 64 66 61 56 52 45 44 51 53 52 49 38 35 31 27 26
22 17 19 34 29 26 30 34 38 50 55 43 61 61 65 62 66 57 56 46 39 50 50 53 46 54 55 56 59 62 64 56 59 48 52 54 51 51 45 42 38 34 31 26
10 26 32 6 10 12 20 34 42 44 54 47 39 46 54 68 77 61 57 52 51 33 46 48 48 47 52 58 55 56 49 55 56 55 55 54 53 49 44 41 37 31 24 25
11 21 9 8 2 8 38 50 43 47 45 43 44 59 65 51 44 49 50 51 54 42 36 51 54 47 57 58 56 52 54 55 51 56 57 62 61 56 47 40 35 27 22 26
7 18 25 5 9 27 46 79 53 37 23 43 56 71 59 29 34 40 44 40 42 34 35 47 54 66 58 61 57 55 57 55 51 54 59 57 51 44 29 17 25 25 26 28
11 10 9 16 42 75 61 29 13 40 49 59 53 24 19 25 15 15 15 3 9 23 35 46 50 60 61 59 57 54 47 44 42 46 47 43 36 10 14 18 26 31 25 28
14 7 11 25 68 59 15 22 88 86 75 58 23 24 32 29 32 27 27 36 47 51 57 56 53 58 61 57 56 54 48 45 42 38 33 26 13 15 18 28 34 34 35 36
8 7 9 59 39 20 36 61 73 39 18 40 45 54 61 51 44 53 48 62 70 80 82 72 72 76 80 71 58 50 43 37 28 21 10 5 8 17 22 25 30 36 39 37
6 8 41 46 43 49 39 42 58 64 59 60 66 66 70 69 75 67 54 74 72 87 85 79 73 70 67 54 44 33 36 30 18 8 1 7 22 20 19 21 24 29 29 28
16 17 41 38 51 50 47 55 57 59 63 67 65 60 64 65 68 65 67 65 66 78 79 78 70 66 56 47 36 33 35 26 15 7 7 4 8 15 16 16 20 23 24 26
7 12 28 41 49 44 39 42 43 46 53 60 63 64 64 60 56 59 58 56 61 68 77 68 67 60 57 44 41 39 38 31 20 16 21 18 12 11 11 12 18 21 24 29
6 28 14 33 39 36 38 40 42 45 46 44 46 44 44 43 43 45 49 51 54 59 65 65 64 67 58 50 44 43 37 34 20 24 22 16 13 10 18 17 17 22 27 31
8 20 18 24 33 33 31 32 34 35 38 39 37 35 39 41 40 39 42 42 54 50 52 53 59 57 51 46 46 41 39 38 31 31 28 24 22 23 27 25 26 22 24 27
13 24 22 28 22 31 33 30 32 34 35 34 34 38 44 46 45 46 43 45 44 46 52 53 54 54 47 45 43 40 36 34 32 32 34 32 34 35 35 33 32 31 34 34
18 21 22 24 26 28 29 30 27 30 33 34 33 35 41 47 50 54 57 48 48 43 43 40 48 52 47 45 43 44 39 35 38 38 37 36 34 29 29 32 36 40 40 39
15 15 19 25 21 24 29 27 25 29 33 33 32 32 36 43 47 54 57 58 56 52 50 51 56 54 53 51 49 45 44 44 42 39 35 36 37 36 36 41 41 40 39 42
11 18 27 29 20 20 24 27 24 23 26 31 34 32 35 34 40 42 49 52 51 50 53 54 51 49 48 50 50 50 54 48 44 39 37 36 38 39 40 38 43 43 42 41
8 13 15 18 17 16 22 24 24 26 30 33 33 34 38 39 38 41 44 42 40 43 48 44 43 43 48 55 55 53 50 46 43 42 39 37 35 35 41 44 46 46 46 46
3 10 16 21 16 15 20 21 22 24 27 29 32 34 35 37 38 42 43 44 51 48 48 44 43 46 50 52 51 47 44 40 36 35 36 37 38 37 39 43 47 49 51 52
5 12 18 20 14 15 20 21 21 24 26 27 28 30 30 31 33 36 37 40 44 39 36 37 40 44 48 51 49 47 40 35 34 35 36 37 38 41 43 47 50 52 54 55
18 15 15 18 16 17 18 19 19 21 22 22 22 21 21 23 28 32 29 31 36 32 34 35 39 45 52 54 54 52 46 39 34 36 38 41 43 45 47 49 52 55 57 59
22 17 11 9 11 9 7 8 10 12 14 13 12 12 12 13 17 21 25 29 32 33 33 36 39 43 51 62 62 59 54 48 44 43 43 45 47 50 52 54 57 59 62 62
23 16 15 10 14 17 17 12 10 9 4 2 4 6 9 12 14 17 15 21 28 30 31 34 38 43 54 64 67 65 62 59 55 51 48 48 50 52 55 57 59 63 66 66
12 18 20 18 20 24 27 22 23 26 19 17 10 9 12 12 16 17 20 17 21 24 27 32 38 43 51 63 71 71 68 66 61 56 52 50 52 54 56 59 61 64 67 70
17 17 20 25 26 31 33 32 21 7 14 20 18 8 10 9 15 16 19 22 20 22 26 33 37 41 50 56 66 73 72 68 65 60 56 53 55 57 58 61 62 65 70 74
24 23 20 25 25 27 29 30 20 13 9 11 15 11 13 11 19 16 20 25 22 25 27 33 35 39 48 57 62 71 73 70 68 63 59 56 55 59 61 62 65 67 71 74
22 19 18 16 18 26 33 29 8 9 10 18 10 10 15 15 19 18 23 26 23 26 30 35 39 40 47 54 59 65 71 67 67 64 62 60 58 59 62 64 67 68 72 75
Wind_Direction_500mb
291 286 280 271 279 283 282 276 268 290 295 306 306 301 306 313 317 317 319 293 273 257 248 224 199 190 190 191 190 191 187 185 197 195 195 196 196 198 202 208 218 226 238 247
303 305 301 297 291 275 280 293 287 289 288 311 321 320 322 316 320 315 314 314 285 263 245 217 202 199 197 193 195 193 192 198 201 204 196 198 200 207 208 211 219 230 243 258
306 336 310 225 9 9 335 323 305 290 293 309 321 322 313 316 306 302 302 304 297 277 244 218 208 204 201 201 199 200 202 207 210 201 198 200 203 207 211 214 221 230 249 276
302 332 323 81 222 306 327 304 304 286 284 298 313 315 303 311 293 299 297 296 298 276 251 228 214 207 213 205 201 204 206 207 208 205 200 198 200 204 203 201 204 216 248 284
296 320 290 31 28 343 328 304 306 281 290 315 314 315 295 271 286 295 293 286 290 272 234 218 204 208 208 206 206 210 207 209 209 204 203 198 197 190 186 232 256 261 280 298
323 322 313 25 346 337 316 286 22 328 318 318 312 301 319 337 294 291 267 299 180 177 177 178 173 185 196 184 191 189 185 188 180 176 168 160 151 189 193 243 273 276 287 301
332 298 289 2 343 324 317 322 309 305 295 297 299 2 22 25 30 49 80 91 110 123 124 115 130 152 147 142 128 123 127 131 133 140 143 155 171 194 229 243 269 293 297 304
308 287 318 2 339 347 312 312 334 340 357 55 53 46 47 48 40 51 41 71 91 98 103 109 110 111 108 105 111 117 117 116 122 130 147 268 259 268 275 290 301 302 298 291
289 324 342 342 328 332 351 353 10 37 55 65 62 58 55 51 51 53 51 64 70 86 92 90 89 89 83 78 79 88 95 93 90 92 132 289 314 304 304 295 293 294 299 295
317 31 341 349 4 27 30 33 34 42 51 57 57 53 55 45 52 55 52 53 68 78 76 77 74 73 74 67 65 60 62 57 55 47 98 35 297 297 287 292 293 291 296 295
278 357 340 356 5 358 12 16 22 39 47 51 50 50 53 55 54 53 57 57 60 68 73 75 78 79 73 68 66 64 66 60 34 37 51 34 12 317 313 309 304 300 303 309
355 331 321 336 358 19 28 36 44 43 41 44 47 50 55 55 53 51 53 61 70 72 73 70 72 71 68 63 61 61 53 59 42 36 37 16 2 353 342 350 343 333 322 312
356 5 16 38 38 40 44 42 47 46 42 44 51 60 53 50 53 54 58 57 62 63 65 67 65 65 61 52 48 45 43 39 33 32 24 7 354 351 357 354 351 341 324 321
10 15 26 26 19 39 42 49 51 51 54 53 55 54 49 49 51 55 58 61 63 61 62 61 60 56 48 41 36 30 31 23 23 22 17 9 360 359 357 348 339 339 344 341
42 31 28 27 32 32 31 39 46 47 49 55 57 56 51 53 53 55 60 60 62 61 61 60 57 55 46 41 33 27 26 16 15 14 11 3 0 352 348 345 346 344 342 342
33 33 27 23 29 32 33 35 42 41 42 47 55 61 56 57 57 58 58 56 54 51 50 47 43 36 28 21 17 16 16 14 12 9 2 0 358 353 350 350 345 340 337 336
34 19 7 19 23 31 35 39 43 48 50 48 51 72 65 58 55 50 47 43 40 37 35 31 27 22 14 7 7 8 8 6 6 3 1 357 353 353 349 345 345 341 338 341
47 22 15 10 18 30 33 44 52 48 49 53 69 78 69 58 48 43 41 36 33 31 28 25 21 16 6 6 6 5 2 1 0 357 356 355 347 347 351 348 345 344 343 343
316 340 355 4 13 27 37 57 66 63 62 67 73 69 64 57 47 40 33 29 26 28 29 27 21 17 19 18 12 5 3 0 356 352 353 354 354 351 347 347 347 348 349 346
359 24 16 18 33 51 50 71 83 85 80 80 79 78 68 54 43 37 32 29 26 34 33 28 29 27 24 19 15 14 9 1 356 355 354 356 355 354 352 351 350 348 350 348
34 34 39 45 71 79 74 84 97 100 99 91 83 75 60 45 41 38 35 33 31 34 34 31 27 23 20 17 18 16 13 7 0 358 359 358 358 357 355 353 353 351 351 349
3 21 41 50 43 46 63 90 103 106 98 93 87 72 58 44 38 30 32 32 32 34 31 27 24 19 16 18 18 16 13 10 7 4 2 1 359 358 357 357 355 354 353 350
20 19 355 338 350 343 308 282 273 265 233 160 43 36 33 25 26 25 16 19 25 27 26 23 20 16 16 17 16 14 13 10 9 6 4 1 1 359 358 358 357 356 354 352
19 22 11 353 354 349 352 342 281 258 253 257 262 288 300 345 345 359 360 351 360 11 15 14 13 11 10 13 13 11 10 9 7 6 4 2 1 0 359 359 357 357 355 356
356 8 1 354 354 1 3 1 0 307 251 286 302 7 298 291 344 338 345 341 329 340 351 1 1 3 6 6 8 9 8 7 6 5 3 2 2 1 1 359 359 357 357 357
356 357 3 359 351 4 1 359 3 21 48 19 1 345 339 344 347 338 339 334 322 321 333 345 344 351 355 360 1 4 4 4 4 4 3 2 2 1 0 360 359 358 358 358
0 352 1 5 11 8 16 6 351 22 358 359 9 19 7 346 336 342 332 323 319 312 322 334 334 344 349 353 356 360 1 1 2 2 3 3 2 1 0 0 0 359 359 360
Wind_Speed_850mb
25 32 26 31 37 37 37 33 34 56 57 52 53 54 70 71 64 56 52 41 44 40 48 56 50 55 57 61 64 66 61 56 52 45 44 51 53 52 49 38 35 31 27 26
22 17 19 34 29 26 30 34 38 50 55 43 61 61 65 62 66 57 56 46 39 50 50 53 46 54 55 56 59 62 64 56 59 48 52 54 51 51 45 42 38 34 31 26
10 26 32 6 10 12 20 34 42 44 54 47 39 46 54 68 77 61 57 52 51 33 46 48 48 47 52 58 55 56 49 55 56 55 55 54 53 49 44 41 37 31 24 25
11 21 9 8 2 8 38 50 43 47 45 43 44 59 65 51 44 49 50 51 54 42 36 51 54 47 57 58 56 52 54 55 51 56 57 62 61 56 47 40 35 27 22 26
7 18 25 5 9 27 46 79 53 37 23 43 56 71 59 29 34 40 44 40 42 34 35 47 54 66 58 61 57 55 57 55 51 54 59 57 51 44 29 17 25 25 26 28
11 10 9 16 42 75 61 29 13 40 49 59 53 24 19 25 15 15 15 3 9 23 35 46 50 60 61 59 57 54 47 44 42 46 47 43 36 10 14 18 26 31 25 28
14 7 11 25 68 59 15 22 88 86 75 58 23 24 32 29 32 27 27 36 47 51 57 56 53 58 61 57 56 54 48 45 42 38 33 26 13 15 18 28 34 34 35 36
8 7 9 59 39 20 36 61 73 39 18 40 45 54 61 51 44 53 48 62 70 80 82 72 72 76 80 71 58 50 43 37 28 21 10 5 8 17 22 25 30 36 39 37
6 8 41 46 43 49 39 42 58 64 59 60 66 66 70 69 75 67 54 74 72 87 85 79 73 70 67 54 44 33 36 30 18 8 1 7 22 20 19 21 24 29 29 28
16 17 41 38 51 50 47 55 57 59 63 67 65 60 64 65 68 65 67 65 66 78 79 78 70 66 56 47 36 33 35 26 15 7 7 4 8 15 16 16 20 23 24 26
7 12 28 41 49 44 39 42 43 46 53 60 63 64 64 60 56 59 58 56 61 68 77 68 67 60 57 44 41 39 38 31 20 16 21 18 12 11 11 12 18 21 24 29
6 28 14 33 39 36 38 40 42 45 46 44 46 44 44 43 43 45 49 51 54 59 65 65 64 67 58 50 44 43 37 34 20 24 22 16 13 10 18 17 17 22 27 31
8 20 18 24 33 33 31 32 34 35 38 39 37 35 39 41 40 39 42 42 54 50 52 53 59 57 51 46 46 41 39 38 31 31 28 24 22 23 27 25 26 22 24 27
13 24 22 28 22 31 33 30 32 34 35 34 34 38 44 46 45 46 43 45 44 46 52 53 54 54 47 45 43 40 36 34 32 32 34 32 34 35 35 33 32 31 34 34
18 21 22 24 26 28 29 30 27 30 33 34 33 35 41 47 50 54 57 48 48 43 43 40 48 52 47 45 43 44 39 35 38 38 37 36 34 29 29 32 36 40 40 39
15 15 19 25 21 24 29 27 25 29 33 33 32 32 36 43 47 54 57 58 56 52 50 51 56 54 53 51 49 45 44 44 42 39 35 36 37 36 36 41 41 40 39 42
11 18 27 29 20 20 24 27 24 23 26 31 34 32 35 34 40 42 49 52 51 50 53 54 51 49 48 50 50 50 54 48 44 39 37 36 38 39 40 38 43 43 42 41
8 13 15 18 17 16 22 24 24 26 30 33 33 34 38 39 38 41 44 42 40 43 48 44 43 43 48 55 55 53 50 46 43 42 39 37 35 35 41 44 46 46 46 46
3 10 16 21 16 15 20 21 22 24 27 29 32 34 35 37 38 42 43 44 51 48 48 44 43 46 50 52 51 47 44 40 36 35 36 37 38 37 39 43 47 49 51 52
5 12 18 20 14 15 20 21 21 24 26 27 28 30 30 31 33 36 37 40 44 39 36 37 40 44 48 51 49 47 40 35 34 35 36 37 38 41 43 47 50 52 54 55
18 15 15 18 16 17 18 19 19 21 22 22 22 21 21 23 28 32 29 31 36 32 34 35 39 45 52 54 54 52 46 39 34 36 38 41 43 45 47 49 52 55 57 59
22 17 11 9 11 9 7 8 10 12 14 13 12 12 12 13 17 21 25 29 32 33 33 36 39 43 51 62 62 59 54 48 44 43 43 45 47 50 52 54 57 59 62 62
23 16 15 10 14 17 17 12 10 9 4 2 4 6 9 12 14 17 15 21 28 30 31 34 38 43 54 64 67 65 62 59 55 51 48 48 50 52 55 57 59 63 66 66
12 18 20 18 20 24 27 22 23 26 19 17 10 9 12 12 16 17 20 17 21 24 27 32 38 43 51 63 71 71 68 66 61 56 52 50 52 54 56 59 61 64 67 70
17 17 20 25 26 31 33 32 21 7 14 20 18 8 10 9 15 16 19 22 20 22 26 33 37 41 50 56 66 73 72 68 65 60 56 53 55 57 58 61 62 65 70 74
24 23 20 25 25 27 29 30 20 13 9 11 15 11 13 11 19 16 20 25 22 25 27 33 35 39 48 57 62 71 73 70 68 63 59 56 55 59 61 62 65 67 71 74
22 19 18 16 18 26 33 29 8 9 10 18 10 10 15 15 19 18 23 26 23 26 30 35 39 40 47 54 59 65 71 67 67 64 62 60 58 59 62 64 67 68 72 75
Wind_Direction_850mb
291 286 280 271 279 283 282 276 268 290 295 306 306 301 306 313 317 317 319 293 273 257 248 224 199 190 190 191 190 191 187 185 197 195 195 196 196 198 202 208 218 226 238 247
303 305 301 297 291 275 280 293 287 289 288 311 321 320 322 316 320 315 314 314 285 263 245 217 202 199 197 193 195 193 192 198 201 204 196 198 200 207 208 211 219 230 243 258
306 336 310 225 9 9 335 323 305 290 293 309 321 322 313 316 306 302 302 304 297 277 244 218 208 204 201 201 199 200 202 207 210 201 198 200 203 207 211 214 221 230 249 276
302 332 323 81 222 306 327 304 304 286 284 298 313 315 303 311 293 299 297 296 298 276 251 228 214 207 213 205 201 204 206 207 208 205 200 198 200 204 203 201 204 216 248 284
296 320 290 31 28 343 328 304 306 281 290 315 314 315 295 271 286 295 293 286 290 272 234 218 204 208 208 206 206 210 207 209 209 204 203 198 197 190 186 232 256 261 280 298
323 322 313 25 346 337 316 286 22 328 318 318 312 301 319 337 294 291 267 299 180 177 177 178 173 185 196 184 191 189 185 188 180 176 168 160 151 189 193 243 273 276 287 301
332 298 289 2 343 324 317 322 309 305 295 297 299 2 22 25 30 49 80 91 110 123 124 115 130 152 147 142 128 123 127 131 133 140 143 155 171 194 229 243 269 293 297 304
308 287 318 2 339 347 312 312 334 340 357 55 53 46 47 48 40 51 41 71 91 98 103 109 110 111 108 105 111 117 117 116 122 130 147 268 259 268 275 290 301 302 298 291
289 324 342 342 328 332 351 353 10 37 55 65 62 58 55 51 51 53 51 64 70 86 92 90 89 89 83 78 79 88 95 93 90 92 132 289 314 304 304 295 293 294 299 295
317 31 341 349 4 27 30 33 34 42 51 57 57 53 55 45 52 55 52 53 68 78 76 77 74 73 74 67 65 60 62 57 55 47 98 35 297 297 287 292 293 291 296 295
278 357 340 356 5 358 12 16 22 39 47 51 50 50 53 55 54 53 57 57 60 68 73 75 78 79 73 68 66 64 66 60 34 37 51 34 12 317 313 309 304 300 303 309
355 331 321 336 358 19 28 36 44 43 41 44 47 50 55 55 53 51 53 61 70 72 73 70 72 71 68 63 61 61 53 59 42 36 37 16 2 353 342 350 343 333 322 312
356 5 16 38 38 40 44 42 47 46 42 44 51 60 53 50 53 54 58 57 62 63 65 67 65 65 61 52 48 45 43 39 33 32 24 7 354 351 357 354 351 341 324 321
10 15 26 26 19 39 42 49 51 51 54 53 55 54 49 49 51 55 58 61 63 61 62 61 60 56 48 41 36 30 31 23 23 22 17 9 360 359 357 348 339 339 344 341
42 31 28 27 32 32 31 39 46 47 49 55 57 56 51 53 53 55 60 60 62 61 61 60 57 55 46 41 33 27 26 16 15 14 11 3 0 352 348 345 346 344 342 342
33 33 27 23 29 32 33 35 42 41 42 47 55 61 56 57 57 58 58 56 54 51 50 47 43 36 28 21 17 16 16 14 12 9 2 0 358 353 350 350 345 340 337 336
34 19 7 19 23 31 35 39 43 48 50 48 51 72 65 58 55 50 47 43 40 37 35 31 27 22 14 7 7 8 8 6 6 3 1 357 353 353 349 345 345 341 338 341
47 22 15 10 18 30 33 44 52 48 49 53 69 78 69 58 48 43 41 36 33 31 28 25 21 16 6 6 6 5 2 1 0 357 356 355 347 347 351 348 345 344 343 343
316 340 355 4 13 27 37 57 66 63 62 67 73 69 64 57 47 40 33 29 26 28 29 27 21 17 19 18 12 5 3 0 356 352 353 354 354 351 347 347 347 348 349 346
359 24 16 18 33 51 50 71 83 85 80 80 79 78 68 54 43 37 32 29 26 34 33 28 29 27 24 19 15 14 9 1 356 355 354 356 355 354 352 351 350 348 350 348
34 34 39 45 71 79 74 84 97 100 99 91 83 75 60 45 41 38 35 33 31 34 34 31 27 23 20 17 18 16 13 7 0 358 359 358 358 357 355 353 353 351 351 349
3 21 41 50 43 46 63 90 103 106 98 93 87 72 58 44 38 30 32 32 32 34 31 27 24 19 16 18 18 16 13 10 7 4 2 1 359 358 357 357 355 354 353 350
20 19 355 338 350 343 308 282 273 265 233 160 43 36 33 25 26 25 16 19 25 27 26 23 20 16 16 17 16 14 13 10 9 6 4 1 1 359 358 358 357 356 354 352
19 22 11 353 354 349 352 342 281 258 253 257 262 288 300 345 345 359 360 351 360 11 15 14 13 11 10 13 13 11 10 9 7 6 4 2 1 0 359 359 357 357 355 356
356 8 1 354 354 1 3 1 0 307 251 286 302 7 298 291 344 338 345 341 329 340 351 1 1 3 6 6 8 9 8 7 6 5 3 2 2 1 1 359 359 357 357 357
356 357 3 359 351 4 1 359 3 21 48 19 1 345 339 344 347 338 339 334 322 321 333 345 344 351 355 360 1 4 4 4 4 4 3 2 2 1 0 360 359 358 358 358
0 352 1 5 11 8 16 6 351 22 358 359 9 19 7 346 336 342 332 323 319 312 322 334 334 344 349 353 356 360 1 1 2 2 3 3 2 1 0 0 0 359 359 360